Weather History for Buffalo, SD

Change the Weather History Date:

Wednesday, September 11, 2013

  Actual Average Record
Temperature  
Mean Temperature 69 °F 61 °F  
Max Temperature 84 °F 75 °F 90 °F (2004)
Min Temperature 53 °F 46 °F 34 °F (2014)
Degree Days  
Heating Degree Days 0 6  
Month to date heating degree days 0 50  
Since 1 July heating degree days 12 102  
Cooling Degree Days 4 2  
Month to date cooling degree days 86 30  
Year to date cooling degree days 573 501  
Growing Degree Days 18 (Base 50)    
Moisture  
Dew Point 50 °F    
Average Humidity 55    
Maximum Humidity 83    
Minimum Humidity 26    
Precipitation  
Precipitation 0.00 in 0.04 in 0.05 in (2008)
Month to date precipitation 1.76 0.47  
Year to date precipitation 11.24 12.61  
Sea Level Pressure  
Sea Level Pressure 30.11 in    
Wind  
Wind Speed 6 mph (North)    
Max Wind Speed 14 mph    
Max Gust Speed 17 mph    
T = Trace of Precipitation, MM = Missing Value Source: NWS Daily Summary

Daily Weather History Graph

Daily Weather History Graph

Search for Another Location

Airport:

Trip Planner

Search our weather history database for the weather conditions in past years. The results will help you decide how hot, cold, wet, or windy it might be!

Date:

Astronomy

Sep. 11, 2013 Rise Set
Actual Time 6:28 AM MDT 7:12 PM MDT
Civil Twilight 5:58 AM MDT 7:42 PM MDT
Nautical Twilight 5:22 AM MDT 8:17 PM MDT
Astronomical Twilight 4:45 AM MDT 8:55 PM MDT
Moon 1:18 PM MDT (9/11) 10:51 PM MDT (9/11)
Length of Visible Light 13h 44m
Length of Day
12h 44m
Waxing Crescent, 39% of the Moon is Illuminated
Sep 11
Waxing Crescent
Sep 12
First Quarter
Sep 19
Full
Sep 26
Last Quarter
Oct 4
New

Hourly Weather History & Observations

Time (MDT) Temp. Dew Point Humidity Pressure Visibility Wind Dir Wind Speed Gust Speed Precip Events Conditions
12:56 AM 61.0 °F 48.0 °F 62% 30.04 in - West 5.8 mph - N/A   Unknown
1:56 AM 60.1 °F 48.0 °F 64% 30.05 in - West 6.9 mph - N/A   Unknown
2:56 AM 59.0 °F 48.0 °F 67% 30.05 in - West 5.8 mph - N/A   Unknown
3:56 AM 55.9 °F 48.9 °F 77% 30.06 in - West 5.8 mph - N/A   Unknown
4:56 AM 57.9 °F 48.9 °F 72% 30.06 in - West 5.8 mph - N/A   Unknown
5:56 AM 57.0 °F 48.9 °F 74% 30.07 in - Calm Calm - N/A   Unknown
6:56 AM 54.0 °F 48.0 °F 80% 30.09 in - SSW 4.6 mph - N/A   Unknown
7:56 AM 60.1 °F 52.0 °F 75% 30.11 in - Calm Calm - N/A   Unknown
8:56 AM 64.9 °F 55.9 °F 73% 30.12 in - Calm Calm - N/A   Unknown
9:56 AM 72.0 °F 53.1 °F 51% 30.11 in - Calm Calm - N/A   Unknown
10:56 AM 75.9 °F 51.1 °F 42% 30.11 in - Calm Calm - N/A   Unknown
11:56 AM 80.1 °F 46.9 °F 31% 30.10 in - NE 3.5 mph - N/A   Unknown
12:56 PM 82.0 °F 48.0 °F 30% 30.10 in - North 5.8 mph - N/A   Unknown
1:56 PM 81.0 °F 48.9 °F 33% 30.10 in - ENE 4.6 mph - N/A   Unknown
2:56 PM 82.0 °F 46.9 °F 29% 30.09 in - North 4.6 mph - N/A   Unknown
3:56 PM 82.9 °F 46.0 °F 27% 30.09 in - NNE 9.2 mph - N/A   Unknown
4:56 PM 82.0 °F 45.0 °F 27% 30.09 in - North 5.8 mph - N/A   Unknown
5:56 PM 81.0 °F 45.0 °F 28% 30.09 in - NNW 9.2 mph - N/A   Unknown
6:56 PM 72.0 °F 54.0 °F 53% 30.13 in - NE 10.4 mph - N/A   Unknown
7:56 PM 68.0 °F 53.1 °F 59% 30.15 in - ENE 10.4 mph - N/A   Unknown
8:56 PM 64.0 °F 53.1 °F 67% 30.17 in - ENE 11.5 mph - N/A   Unknown
9:56 PM 61.0 °F 52.0 °F 72% 30.18 in - ENE 9.2 mph - N/A   Unknown
10:56 PM 60.1 °F 51.1 °F 72% 30.18 in - ENE 9.2 mph - N/A   Unknown
11:56 PM 59.0 °F 50.0 °F 72% 30.19 in - ENE 5.8 mph - N/A   Unknown